Location: Volkssternwarte_EN
(51.3230°N, 7.4010°E)
Time: 03:28:43
(UTC+02:00)

ACS3 Solar Sail - Visible Passes

Search period start: 18 July 2024 00:00
Search period end: 28 July 2024 00:00
Orbit: 993 x 1023 km, 97.4° (Epoch: 17 July)

Date Brightness Start Highest point End Pass type
(mag) Time Alt. Az. Time Alt. Az. Time Alt. Az.
18 Jul 5.0 22:34:11 10° S 22:40:25 80° WSW 22:46:43 10° NNW visible
19 Jul 7.1 00:21:52 10° WSW 00:25:34 16° W 00:29:18 10° NW visible
19 Jul 5.7 23:09:02 10° S 23:14:59 47° W 23:21:01 10° NNW visible
20 Jul 6.5 23:44:33 10° SW 23:49:45 27° W 23:55:01 10° NNW visible
21 Jul 5.0 22:33:19 10° S 22:39:32 78° WSW 22:45:51 10° NNW visible
22 Jul 7.1 00:21:09 10° WSW 00:24:44 16° W 00:28:22 10° NW visible
22 Jul 5.7 23:08:11 10° SSW 23:14:07 46° W 23:20:09 10° NNW visible
23 Jul 6.5 23:43:45 10° SW 23:48:54 27° W 23:54:08 10° NNW visible
24 Jul 5.0 22:32:27 10° S 22:38:41 76° WSW 22:44:59 10° NNW visible
25 Jul 7.1 00:20:25 10° WSW 00:23:54 15° W 00:27:25 10° NW visible
25 Jul 5.8 23:07:21 10° SSW 23:13:16 45° W 23:19:17 10° NNW visible
26 Jul 5.0 21:57:14 10° SSE 22:03:23 68° ENE 22:09:39 10° N visible
26 Jul 6.6 23:42:57 10° SW 23:48:04 26° W 23:53:14 10° NNW visible
27 Jul 5.1 22:31:35 10° S 22:37:49 74° WSW 22:44:08 10° NNW visible
